Tracking 30744 objects as of 24-Jun-2025
HD Live streaming from Space Station
objects crossing your sky now

FENGYUN 1C DEB

Track FENGYUN 1C DEB now!
10-day predictions


NORAD ID: 35121
Int'l Code: 1999-025DKZ
Perigee: 771.4 km
Apogee: 998.6 km
Inclination: 98.3 °
Period: 102.5 minutes
Semi major axis: 7255 km
RCS: 0.0043 m2 (small)
Launch date: May 10, 1999
Source: People's Republic of China (PRC)
Launch site: Taiyaun Space Center, China (TSC)

Note: This is SATELLITE DEBRIS
Your satellite tracking list
Your tracking list is empty




NASA's NSSDC Master Catalog

Two Line Element Set (TLE):
1 35121U 99025DKZ 25167.93487399  .00000368  00000-0  22859-3 0  9996
2 35121  98.3297  46.0334 0156582 244.7521 113.7350 14.04617255890668
Source of the keplerian elements: AFSPC